Location: Black Skies Observatory
(44.7549°N, 79.7179°W)
Time: 14:31:32
(UTC-05:00)

Envisat - Pass Details

Date: 01 November 2020
Orbit: 764 x 766 km, 98.1° (Epoch: 01 December)

Event Time Altitude Azimuth Distance (km) Brightness Sun altitude
Rises 18:30:20 0° 203° (SSW) 3,220 6.6 -15.3°
Reaches altitude 10° 18:33:08 10° 218° (SW) 2,299 6.1 -15.8°
Maximum altitude 18:36:59 22° 268° (W) 1,651 5.7 -16.4°
Drops below altitude 10° 18:40:51 10° 318° (NW) 2,311 6.0 -17.1°
Sets 18:43:42 0° 334° (NNW) 3,243 6.6 -17.6°
